www.pogodaiklimat.ru

Погода и климат >> Архив погоды >> Россия >> Ямало-Ненецкий АО >> Белоярск


ПОГОДА в Белоярске

  • Прогноз погоды в Белоярске
  • Монитор погоды в Белоярске
  • Климат города

АРХИВ ПОГОДЫ в Белоярске

Время (UTC), дата Ветер
(напр.,м/с)
 
Видим.   Явления Облачность Т
(С)
Тd
(С)
f
(%)
Тe
(С)
Тes
(С)
Комфортность P
(гПа)
Po
(гПа)
Тmin
(С)
Tmax
(С)
R
(мм)
R24
(мм)
S
(см)
21 15.10 ЮЗ 8
{11}
н/о н/о -1.7 -1.9 99 -10 -10 1011.1 1006.6
00 16.10 ЮЗ 8
{14}
н/о н/о -1.1 -1.3 99 -9 -9 1007.0 1002.6
03 16.10 З 9
{16}
н/о н/о -0.7 -1.3 96 -9 -9 1002.1 997.7 -3.8 0.9
06 16.10 ЮЗ 6
{14}
н/о н/о -0.6 -0.9 98 -8 -8 998.6 994.3
12 16.10 З 3
{13}
н/о н/о +2.8 +1.0 88 -1 -1 996.0 991.7
15 16.10 ЮЗ 7
{15}
н/о н/о +2.4 +1.7 95 -4 -4 993.6 989.3 +2.9 1
18 16.10 З 5
{15}
н/о н/о +2.8 +0.5 85 -3 -3 992.4 988.1
21 16.10 СЗ 6
{15}
н/о н/о +1.7 +1.0 95 -5 -5 991.8 987.5
00 17.10 З 5
{14}
н/о н/о +1.1 -0.3 90 -5 -5 991.3 987.0
03 17.10 СЗ 6
{14}
н/о н/о +0.7 -1.4 86 -6 -6 991.6 987.2 +0.7 1
06 17.10 СЗ 5 н/о н/о +1.4 -2.4 76 -4 -4 993.4 989.1 +0.1
09 17.10 СЗ 4 н/о н/о +1.4 -0.3 88 -4 -4 995.9 991.6
12 17.10 З 7
{12}
н/о н/о +0.6 -0.6 92 -6 -6 998.8 994.4
18 17.10 СЗ 8
{15}
н/о н/о -0.3 -1.1 94 -8 -8 1005.3 1000.9
21 17.10 СЗ 6
{11}
н/о н/о -0.8 -2.5 88 -8 -8 1008.1 1003.7
00 18.10 СЗ 4 н/о н/о -0.8 -3.8 80 -6 -6 1010.2 1005.8
03 18.10 З 4 н/о н/о -1.1 -4.1 80 -7 -7 1011.9 1007.4 -1.2
06 18.10 СЗ 3 н/о н/о -0.1 -3.5 78 -5 -5 1012.7 1008.3 -1.3
09 18.10 З 1 н/о н/о -0.2 -2.7 83 -2 -2 1013.1 1008.7
12 18.10 З 2 н/о н/о -0.5 -3.5 80 -4 -4 1012.9 1008.5
15 18.10 СЗ 2 н/о н/о -1.5 -3.3 88 -5 -5 1012.9 1008.4 +0.2
18 18.10 СЗ 1 н/о н/о -1.5 -4.2 82 -4 -4 1011.9 1007.5
21 18.10 З 1 н/о н/о -1.4 -3.2 88 -4 -4 1011.4 1006.9
00 19.10 З 2 н/о н/о -1.6 -1.8 99 -6 -6 1010.9 1006.5
03 19.10 З 2 н/о н/о -1.9 -2.1 99 -6 -6 1010.5 1006.1 -2.0
06 19.10 З 1 н/о н/о -1.2 -1.8 96 -4 -4 1010.4 1006.0
09 19.10 З 1 н/о н/о -0.6 -2.0 90 -3 -3 1010.2 1005.8
12 19.10 З 1 н/о н/о -1.2 -1.5 98 -4 -4 1009.9 1005.5
15 19.10 З 2 н/о н/о -1.7 -1.9 99 -6 -6 1010.0 1005.5 -0.6
18 19.10 З 1 н/о н/о -2.2 -2.3 99 -5 -5 1009.6 1005.2
21 19.10 ЮЗ 2 н/о н/о -2.4 -2.6 99 -7 -7 1009.4 1004.9
00 20.10 ЮЗ 3 н/о н/о -3.1 -3.3 99 -9 -9 1009.1 1004.7
03 20.10 ЮЗ 3 н/о н/о -4.9 -4.9 100 -11 -11 1009.7 1005.3 -4.6
06 20.10 ЮВ 3 н/о н/о -4.0 -4.5 96 -10 -10 1010.2 1005.8 -5.8
09 20.10 Ю 4 н/о н/о -2.6 -5.8 79 -8 -8 1010.8 1006.3
12 20.10 В 4 н/о н/о -4.2 -5.8 89 -11 -11 1011.9 1007.4
15 20.10 В 3 н/о н/о -8.9 -9.0 99 -15 -15 1012.8 1008.2 -2.5
18 20.10 СЗ 3 н/о н/о -5.5 -5.5 100 -11 -11 1012.6 1008.1
21 20.10 ЮВ 2 н/о н/о -3.5 -3.6 99 -8 -8 1012.4 1007.9
00 21.10 ЮЗ 3 н/о н/о -4.5 -4.6 99 -10 -10 1013.1 1008.6
03 21.10 ЮВ 3 н/о н/о -5.7 -5.7 100 -12 -12 1014.0 1009.4 -9.0
06 21.10 В 3 н/о н/о -4.6 -4.8 99 -10 -10 1014.6 1010.1
09 21.10 В 2 н/о н/о -3.3 -4.9 89 -7 -7 1015.3 1010.9
12 21.10 СЗ 2 н/о н/о -3.8 -4.0 99 -8 -8 1015.8 1011.3
15 21.10 ЮЗ 1 н/о н/о -4.7 -4.8 99 -7 -7 1015.8 1011.3 -3.3
18 21.10 З 1 н/о н/о -5.1 -5.2 99 -8 -8 1015.5 1011.0

 

Местоположение метеостанции Белоярск (Ямало-Ненецкий АО, Россия): широта 66.87 долгота 68.13 высота над уровнем моря 35 м.

В архиве по умолчанию представлена погода в Белоярске за последнюю неделю. Архивные данные за месяц целиком и за предыдущие месяцы, начиная с января 2011 года, Вы можете получить, выбрав интересующий диапазон дат из раскрывающегося списка и нажав кнопку "Ввод!".


*Определитесь, кто Вы:
робот инопланетянин человек

Внимание! Время в таблицах - всемирное. Для получения местного времени необходимо прибавить поправку, которая в Белоярске равна 5 ч.

Смотрите также архив погоды в соседних городах и на ближайших метеорологических станциях:

Погода в Салехарде (Ямало-Ненецкий АО, Россия) (75 км)
Погода в Полуе (Ямало-Ненецкий АО, Россия) (97 км)
Погода в Харпе (Ямало-Ненецкий АО, Россия) (103 км)
Погода в Питляре (Ямало-Ненецкий АО, Россия) (152 км)
Погода в Елецкой (Коми, Россия) (178 км)
Погода в Воркуте (Коми, Россия) (192 км)
Погода в Ныде (Ямало-Ненецкий АО, Россия) (212 км)
Погода в Новом Порте (Ямало-Ненецкий АО, Россия) (223 км)
Погода в Мужах (Ямало-Ненецкий АО, Россия) (226 км)
Погода в Надыме (Ямало-Ненецкий АО, Россия) (257 км)

Пояснения к столбцам:

Ветер - указаны скорость ветра в м/с - средняя за 10 мин, порывы в срок и между сроками (в фигурных скобках) и направление, откуда дует ветер: С - северный, СВ - северо-восточный, В - восточный, ЮВ - юго-восточный, Ю - южный, ЮЗ - юго-западный, З - западный, СЗ - северо-западный.
Видимость - горизонтальная дальность видимости в метрах или километрах. При видимости от 1 до 10 км при отсутствии осадков обычно наблюдается дымка, при ухудшении видимости до 1 км и менее - туман. В сухую погоду видимость может ухудшаться дымом, пылью или мглою.
Явления - указаны атмосферные явления, наблюдавшиеся в срок или в последний час перед сроком; фигурными скобками обозначены явления, наблюдавшиеся между сроками (за 1-3 часа до срока); квадратными скобками обозначены град или гололедные отложения с указанием их диаметра в мм.
Облачность - указаны через наклонную черту общая и нижняя облачность в баллах и высота нижней границы облаков в метрах; квадратными скобками обозначены формы облаков: Ci - перистые, Cs - перисто-слоистые, Cc - перисто-кучевые, Ac - высококучевые, As - высокослоистые, Sc - слоисто-кучевые, Ns - слоисто-дождевые, Cu - кучевые, Cb - кучево-дождевые. Подробнее классификацию облаков см. в Атласе облаков (PDF).
T - Температура воздуха - температура, измеренная на высоте 2 м над землей.
Td - Температура точки росы - температура, при понижении до которой содержащийся в воздухе водяной пар достигнет насыщения.
f - Относительная влажность воздуха - влажноcть воздуха, измеренная на высоте 2 м над землей.
Te - Эффективная температура - температура, которую ощущает одетый по сезону человек в тени. Характеристика душности погоды. При расчете учитывается влияние влажности воздуха и скорости ветра на теплоощущения человека.
Tes - Эффективная температура на солнце - температура, которую ощущает человек, с поправкой на солнечный нагрев. Характеристика знойности погоды. Зависит от высоты солнца над горизонтом, облачности и скорости ветра. Ночью, в пасмурную погоду, а также при ветре 12 м/с и более поправка равна нулю.
P - Атмосферное давление - приведенное к уровню моря атмосферное давление.
Po - Атмосферное давление - измеренное на уровне метеостанции атмосферное давление.
Tmin - Минимальная температура - минимум температуры воздуха на высоте 2 м над землей.
Tmax - Максимальная температура - максимум температуры воздуха на высоте 2 м над землей.
R - Количество осадков - Количество выпавших осадков за период времени, мм. При наведении курсора мыши на число - период времени, за который выпало указанное количество осадков.
R24 - Количество осадков - Количество выпавших осадков за 24 часа, мм.
S - Снежный покров - Высота снежного покрова, см. При наведении курсора мыши на число - состояние снежного покрова и степень покрытия местности в баллах.